Location: Wiesbaden
(50.0830°N, 8.2500°E)
Time: 19:45:48
(UTC+02:00)

ISS - Pass Details

Date: 21 July 2019
Orbit: 409 x 418 km, 51.6° (Epoch: 20 July)

Event Time Altitude Azimuth Distance (km) Brightness Sun altitude
Rises 23:47:12 0° 271° (W) 2,353 0.4 -15.7°
Reaches altitude 10° 23:49:18 10° 274° (W) 1,489 -0.6 -15.9°
Maximum altitude 23:52:38 65° 357° (N) 461 -3.4 -16.1°
Drops below altitude 10° 23:55:56 10° 80° (E) 1,484 -1.1 -16.3°
Enters shadow 23:56:36 - 82° (E) 1,750 -0.8 -16.3°
